Regional Weather Roundup
Issued by NWS

Home | Current Version | Previous Version | Graphics & Text | Print | Product List | Glossary On
Versions: 1 2 3 4 5 6 7 8 9 10 11 12 13 14 15 16 17 18 19 20 21 22 23 24 25 26 27 28 29 30 31 32 33 34 35 36 37 38 39 40 41 42 43 44 45 46 47 48 49 50
870
ASUS44 KMEG 221410
RWRTN
TENNESSEE HOURLY STATE WEATHER ROUNDUP
NATIONAL WEATHER SERVICE MEMPHIS TN
800 AM CST WED NOV 22 2017

TNZ002-004-019-021-049-052-054-088>092-221500-
WEST TENNESSEE

CITY           SKY/WX    TMP DP  RH WIND       PRES   REMARKS
MEMPHIS INTL   MOSUNNY   35  24  64 NE13G21   30.34R WCI  26
NWS MEMPHIS      N/A     34 N/A N/A MISG        N/A
JACKSON        SUNNY     34  24  67 N13       30.34R WCI  25
DYERSBURG      CLOUDY    34  23  64 N9        30.38R WCI  27
SOMERVILLE     SUNNY     34  23  64 N10       30.32R WCI  26
COVINGTON      SUNNY     34  25  69 N12       30.36S WCI  25
UNION CITY     SUNNY     32  23  69 N13       30.38R WCI  22
BOLIVAR        SUNNY     34  25  69 NW10G16   30.31R WCI  26
PARIS          SUNNY     32  23  69 N10       30.33S WCI  24
HUNTINGDON     SUNNY     32  25  74 N7        30.33S WCI  26
LEXINGTON      SUNNY     34  23  64 N10G20    30.31S WCI  26
SELMER         SUNNY     34  25  69 N15       30.29R WCI  24
SAVANNAH       SUNNY     36  27  69 N15       30.28R WCI  26
$$

TNZ008-025-027-028-033-062-065-066-221500-
NORTH MIDDLE TENNESSEE

CITY           SKY/WX    TMP DP  RH WIND       PRES   REMARKS
NASHVILLE      MOSUNNY   35  25  66 N12       30.30R WCI  27
PORTLAND       SUNNY     32  25  74 N9G16     30.29R WCI  24
CLARKSVILLE    SUNNY     32  24  72 N9        30.34R WCI  24
SMYRNA         MOSUNNY   34  27  75 N9G20     30.31R WCI  27
COOKEVILLE     CLOUDY    37  34  87 N8        30.22R WCI  31
GALLATIN       SUNNY     34  27  75 N13       30.32R WCI  25
CROSSVILLE     CLOUDY    36  33  89 N9        30.19R WCI  29
$$

TNZ061-075-076-078-094-096-097-221500-
SOUTH MIDDLE TENNESSEE

CITY           SKY/WX    TMP DP  RH WIND       PRES   REMARKS
FAYETTEVILLE   SUNNY     37  32  81 N10G18    30.21R WCI  30
TULLAHOMA      PTSUNNY   36  32  87 N10       30.22R WCI  28
WINCHESTER     CLOUDY    37  34  87 N8        30.22S WCI  31
MCMINNVILLE    CLOUDY    37  34  87 NE12G18   30.23R WCI  30
COLUMBIA       SUNNY     34  25  69 N7        30.27R WCI  28
SHELBYVILLE    SUNNY     36  30  80 N16       30.25R WCI  26
$$

TNZ017-018-042-046-047-221500-
NORTHEAST TENNESSEE

CITY           SKY/WX    TMP DP  RH WIND       PRES   REMARKS
TRI CITIES     MOSUNNY   47  37  68 N6        30.14R
ELIZABETHTON   SUNNY     48  34  57 N9G16     30.13R
$$

TNZ012-013-036-069-073-074-221500-
CENTRAL EAST TENNESSEE

CITY           SKY/WX    TMP DP  RH WIND       PRES   REMARKS
KNOXVILLE      MOSUNNY   45  37  73 N10       30.17R
OAK RIDGE      SUNNY     45  37  73 VRB5      30.20R
DOWNTOWN KNOXV SUNNY     46  41  81 VRB5G16   30.19R
GATLINBURG     SUNNY     43  39  87 CALM      30.17R
MORRISTOWN     SUNNY     45  34  65 N8        30.16R
JACKSBORO      CLOUDY    39  32  75 NE9       30.23R WCI  33
$$

TNZ083-085-099-221500-
SOUTHEAST TENNESSEE

CITY           SKY/WX    TMP DP  RH WIND       PRES   REMARKS
CHATTANOOGA    MOSUNNY   47  35  63 N15G22    30.18R
DAYTON         SUNNY     45  39  81 N13       30.18R
$$

SKY/WX REPORTED AS FAIR MEANS FEW OR NO CLOUDS BELOW
12 THOUSAND FEET.





USA.gov is the U.S. government's official web portal to all federal, state and local government web resources and services.